SHT8K EGLL-EGPH

Flight info

Callsign SHT8K
Flight time 0h 52m
Altitude 32000
Route ULTIB1J ULTIB T420 TNT UN57 POL UN601 RIBEL DCT INPIP INPIP1E
Aircraft A320/M-SDE3FGIJ1KRWXY/SB1

Departure

Time 2026-04-25 18:59
Airport London Heathrow Airport (EGLL)

Arrival

Time 2026-04-25 19:51
Airport Edinburgh Airport (EGPH)
Time Latitude Longitude Altitude Speed Heading
2026-04-25 18:08 51.47404 -0.48891 88 ft 0 kts 179°
2026-04-25 18:47 51.47415 -0.48891 88 ft 4 kts 179°
2026-04-25 18:47 51.47442 -0.48891 87 ft 4 kts 179°
2026-04-25 18:47 51.47463 -0.48891 87 ft 4 kts 175°
2026-04-25 18:48 51.47487 -0.48904 89 ft 4 kts 140°
2026-04-25 18:48 51.47504 -0.48929 89 ft 4 kts 134°
2026-04-25 18:48 51.47509 -0.48937 86 ft 0 kts 134°
2026-04-25 18:51 51.47507 -0.48934 86 ft 1 kts 134°
2026-04-25 18:52 51.47497 -0.48909 87 ft 4 kts 118°
2026-04-25 18:52 51.47488 -0.48855 89 ft 6 kts 99°
2026-04-25 18:52 51.47486 -0.48768 87 ft 9 kts 90°
2026-04-25 18:52 51.47487 -0.48651 87 ft 12 kts 90°
2026-04-25 18:53 51.47478 -0.48506 90 ft 14 kts 120°
2026-04-25 18:53 51.47415 -0.48474 86 ft 16 kts 179°
2026-04-25 18:53 51.47295 -0.48473 86 ft 19 kts 180°
2026-04-25 18:53 51.47155 -0.48473 86 ft 22 kts 179°
2026-04-25 18:54 51.46833 -0.48468 86 ft 7 kts 179°
2026-04-25 18:54 51.46830 -0.48468 86 ft 0 kts 180°
2026-04-25 18:55 51.46820 -0.48468 86 ft 3 kts 180°
2026-04-25 18:55 51.46791 -0.48467 86 ft 5 kts 180°
2026-04-25 18:55 51.46745 -0.48467 86 ft 8 kts 180°
2026-04-25 18:55 51.46680 -0.48468 86 ft 11 kts 180°
2026-04-25 18:56 51.46599 -0.48468 86 ft 13 kts 180°
2026-04-25 18:56 51.46508 -0.48469 86 ft 11 kts 176°
2026-04-25 18:56 51.46479 -0.48389 89 ft 0 kts 90°
2026-04-25 18:58 51.46477 -0.48100 87 ft 59 kts 90°
2026-04-25 18:58 51.46486 -0.47071 90 ft 121 kts 90°
2026-04-25 18:59 51.46501 -0.43795 812 ft 154 kts 89°
2026-04-25 18:59 51.46976 -0.40417 1675 ft 175 kts 53°
2026-04-25 19:00 51.48715 -0.37019 2015 ft 221 kts 51°
2026-04-25 19:00 51.49734 -0.34997 2260 ft 244 kts 51°
2026-04-25 19:01 51.51822 -0.30845 3919 ft 229 kts 52°
2026-04-25 19:01 51.52604 -0.28633 4583 ft 230 kts 71°
2026-04-25 19:01 51.53118 -0.26170 5223 ft 233 kts 71°
2026-04-25 19:01 51.53859 -0.23850 5794 ft 237 kts 47°
2026-04-25 19:02 51.56839 -0.22217 6987 ft 237 kts 345°
2026-04-25 19:02 51.58383 -0.22941 7549 ft 238 kts 345°
2026-04-25 19:02 51.60052 -0.23514 8273 ft 240 kts 348°
2026-04-25 19:03 51.62712 -0.24806 9289 ft 242 kts 331°
2026-04-25 19:03 51.64684 -0.26587 10115 ft 244 kts 329°
2026-04-25 19:03 51.66134 -0.27961 10664 ft 246 kts 328°
2026-04-25 19:04 51.69107 -0.30829 11745 ft 251 kts 328°
2026-04-25 19:04 51.70613 -0.32288 12280 ft 254 kts 328°
2026-04-25 19:05 51.73875 -0.35456 12966 ft 297 kts 328°
2026-04-25 19:05 51.77697 -0.39163 13359 ft 341 kts 328°
2026-04-25 19:05 51.79764 -0.41167 13943 ft 349 kts 328°
2026-04-25 19:06 51.81869 -0.43202 14576 ft 354 kts 328°
2026-04-25 19:06 51.86131 -0.47317 15870 ft 360 kts 328°
2026-04-25 19:06 51.88291 -0.49408 16512 ft 363 kts 328°
2026-04-25 19:07 51.92659 -0.53664 17787 ft 369 kts 327°
2026-04-25 19:07 51.94861 -0.55819 18439 ft 372 kts 327°
2026-04-25 19:08 51.99337 -0.60206 19574 ft 379 kts 327°
2026-04-25 19:08 52.01606 -0.62430 20130 ft 382 kts 327°
2026-04-25 19:09 52.08524 -0.69217 21769 ft 392 kts 327°
2026-04-25 19:09 52.10073 -0.70742 22103 ft 394 kts 326°
2026-04-25 19:09 52.15605 -0.76190 23271 ft 402 kts 326°
2026-04-25 19:10 52.18008 -0.78557 23759 ft 405 kts 326°
2026-04-25 19:10 52.20424 -0.80946 24174 ft 408 kts 326°
2026-04-25 19:10 52.22859 -0.83361 24609 ft 411 kts 326°
2026-04-25 19:10 52.25307 -0.85792 25027 ft 413 kts 326°
2026-04-25 19:11 52.27768 -0.88236 25464 ft 416 kts 326°
2026-04-25 19:11 52.30249 -0.90701 25887 ft 418 kts 326°
2026-04-25 19:11 52.32743 -0.93186 26297 ft 421 kts 326°
2026-04-25 19:11 52.35248 -0.95685 26703 ft 423 kts 326°
2026-04-25 19:12 52.37737 -0.98171 27093 ft 426 kts 326°
2026-04-25 19:12 52.40307 -1.00739 27474 ft 429 kts 326°
2026-04-25 19:12 52.42868 -1.03298 27819 ft 433 kts 326°
2026-04-25 19:12 52.45445 -1.05876 28154 ft 435 kts 326°
2026-04-25 19:13 52.48035 -1.08471 28203 ft 436 kts 326°
2026-04-25 19:13 52.53169 -1.13635 28206 ft 435 kts 326°
2026-04-25 19:14 52.58338 -1.18836 28199 ft 436 kts 326°
2026-04-25 19:14 52.63507 -1.24051 28195 ft 435 kts 326°
2026-04-25 19:15 52.68667 -1.29277 28192 ft 435 kts 326°
2026-04-25 19:15 52.73826 -1.34514 28221 ft 435 kts 326°
2026-04-25 19:16 52.78975 -1.39775 28218 ft 435 kts 326°
2026-04-25 19:16 52.84123 -1.45059 28219 ft 435 kts 326°
2026-04-25 19:17 52.89277 -1.50342 28221 ft 435 kts 326°
2026-04-25 19:17 52.94813 -1.54513 28223 ft 440 kts 335°
2026-04-25 19:18 53.00486 -1.58367 28229 ft 440 kts 336°
2026-04-25 19:18 53.06159 -1.62222 28217 ft 440 kts 336°
2026-04-25 19:19 53.11828 -1.66087 28219 ft 440 kts 335°
2026-04-25 19:19 53.17491 -1.69971 28215 ft 440 kts 335°
2026-04-25 19:20 53.23157 -1.73858 28216 ft 440 kts 335°
2026-04-25 19:20 53.28822 -1.77759 28215 ft 440 kts 335°
2026-04-25 19:21 53.34468 -1.81667 28215 ft 440 kts 335°
2026-04-25 19:21 53.42954 -1.87565 28216 ft 440 kts 335°
2026-04-25 19:22 53.48606 -1.91494 28215 ft 440 kts 335°
2026-04-25 19:23 53.57091 -1.97412 28214 ft 440 kts 335°
2026-04-25 19:23 53.65565 -2.03354 28215 ft 440 kts 335°
2026-04-25 19:24 53.71207 -2.07323 28215 ft 440 kts 335°
2026-04-25 19:24 53.76862 -2.11324 28012 ft 443 kts 337°
2026-04-25 19:25 53.82603 -2.15397 28009 ft 451 kts 337°
2026-04-25 19:25 53.88423 -2.19530 28009 ft 456 kts 337°
2026-04-25 19:26 53.94310 -2.23713 28009 ft 461 kts 337°
2026-04-25 19:26 54.00264 -2.27974 28009 ft 466 kts 336°
2026-04-25 19:27 54.04234 -2.30806 28009 ft 469 kts 337°
2026-04-25 19:27 54.12380 -2.36407 28009 ft 475 kts 338°
2026-04-25 19:28 54.18528 -2.40618 28009 ft 476 kts 338°
2026-04-25 19:28 54.24666 -2.44892 28009 ft 476 kts 337°
2026-04-25 19:29 54.30803 -2.49199 28009 ft 476 kts 337°
2026-04-25 19:29 54.36898 -2.53471 28009 ft 476 kts 337°
2026-04-25 19:30 54.43028 -2.57783 28009 ft 476 kts 337°
2026-04-25 19:30 54.49161 -2.62108 28009 ft 476 kts 337°
2026-04-25 19:31 54.55290 -2.66443 28009 ft 476 kts 337°
2026-04-25 19:31 54.61415 -2.70786 28009 ft 476 kts 337°
2026-04-25 19:32 54.67542 -2.75155 28009 ft 476 kts 337°
2026-04-25 19:32 54.71632 -2.78077 28009 ft 476 kts 337°
2026-04-25 19:33 54.79782 -2.83912 28009 ft 476 kts 337°
2026-04-25 19:33 54.85849 -2.88280 27300 ft 469 kts 337°
2026-04-25 19:34 54.88871 -2.90459 26296 ft 471 kts 337°
2026-04-25 19:34 54.91896 -2.92645 25517 ft 468 kts 337°
2026-04-25 19:34 54.94880 -2.94804 24808 ft 462 kts 337°
2026-04-25 19:34 54.97825 -2.96936 24121 ft 457 kts 337°
2026-04-25 19:35 54.99754 -2.98373 23831 ft 449 kts 335°
2026-04-25 19:35 55.02543 -3.00593 23671 ft 433 kts 335°
2026-04-25 19:35 55.05245 -3.02764 23294 ft 424 kts 335°
2026-04-25 19:35 55.07911 -3.04908 22815 ft 418 kts 335°
2026-04-25 19:36 55.10533 -3.07020 22296 ft 414 kts 335°
2026-04-25 19:36 55.13140 -3.09121 21767 ft 410 kts 335°
2026-04-25 19:36 55.15720 -3.11204 21240 ft 406 kts 335°
2026-04-25 19:36 55.18269 -3.13263 20712 ft 402 kts 335°
2026-04-25 19:37 55.20796 -3.15307 20176 ft 398 kts 335°
2026-04-25 19:37 55.23298 -3.17331 19640 ft 394 kts 335°
2026-04-25 19:37 55.25776 -3.19339 19098 ft 390 kts 335°
2026-04-25 19:37 55.28233 -3.21332 18561 ft 387 kts 335°
2026-04-25 19:38 55.30663 -3.23304 18033 ft 383 kts 335°
2026-04-25 19:38 55.33073 -3.25262 17511 ft 380 kts 335°
2026-04-25 19:38 55.35461 -3.27204 16996 ft 376 kts 335°
2026-04-25 19:38 55.37823 -3.29126 16477 ft 373 kts 335°
2026-04-25 19:39 55.40164 -3.31034 15959 ft 369 kts 335°
2026-04-25 19:39 55.42488 -3.32929 15439 ft 366 kts 335°
2026-04-25 19:39 55.44785 -3.34797 14929 ft 362 kts 336°
2026-04-25 19:39 55.47190 -3.35970 14436 ft 359 kts 355°
2026-04-25 19:40 55.49660 -3.35551 13951 ft 356 kts 15°
2026-04-25 19:40 55.51998 -3.34178 13427 ft 354 kts 19°
2026-04-25 19:40 55.54305 -3.32718 12932 ft 352 kts 19°
2026-04-25 19:40 55.56604 -3.31254 12451 ft 349 kts 20°
2026-04-25 19:41 55.58871 -3.29807 11980 ft 346 kts 20°
2026-04-25 19:41 55.61125 -3.28366 11515 ft 343 kts 20°
2026-04-25 19:41 55.63363 -3.26934 11056 ft 340 kts 20°
2026-04-25 19:41 55.64838 -3.25990 10753 ft 339 kts 20°
2026-04-25 19:42 55.67793 -3.24104 10161 ft 335 kts 18°
2026-04-25 19:42 55.70040 -3.23507 10009 ft 322 kts 355°
2026-04-25 19:42 55.72122 -3.24487 9885 ft 309 kts 332°
2026-04-25 19:42 55.73740 -3.26833 9719 ft 298 kts 307°
2026-04-25 19:43 55.74625 -3.30078 9419 ft 293 kts 284°
2026-04-25 19:43 55.75048 -3.33607 9057 ft 292 kts 280°
2026-04-25 19:43 55.75412 -3.37134 8712 ft 290 kts 279°
2026-04-25 19:43 55.75770 -3.40663 8301 ft 291 kts 279°
2026-04-25 19:44 55.76128 -3.44218 7850 ft 293 kts 279°
2026-04-25 19:44 55.76486 -3.47782 7402 ft 295 kts 279°
2026-04-25 19:44 55.76848 -3.51396 6947 ft 297 kts 279°
2026-04-25 19:44 55.77208 -3.55009 6495 ft 298 kts 279°
2026-04-25 19:45 55.77569 -3.58639 6043 ft 298 kts 279°
2026-04-25 19:45 55.77930 -3.62269 5592 ft 299 kts 279°
2026-04-25 19:45 55.78291 -3.65909 5139 ft 299 kts 279°
2026-04-25 19:45 55.78689 -3.69535 4686 ft 299 kts 286°
2026-04-25 19:46 55.79683 -3.72743 4226 ft 296 kts 313°
2026-04-25 19:46 55.81384 -3.74576 3776 ft 284 kts 346°
2026-04-25 19:46 55.83294 -3.74458 3327 ft 273 kts 20°
2026-04-25 19:46 55.84781 -3.72515 2881 ft 263 kts 53°
2026-04-25 19:47 55.85788 -3.69940 2735 ft 243 kts 58°
2026-04-25 19:47 55.86320 -3.67211 2749 ft 235 kts 88°
2026-04-25 19:47 55.86360 -3.64309 2749 ft 235 kts 86°
2026-04-25 19:47 55.86785 -3.61518 2743 ft 229 kts 65°
2026-04-25 19:48 55.87532 -3.59114 2739 ft 213 kts 59°
2026-04-25 19:48 55.88279 -3.56952 2763 ft 200 kts 59°
2026-04-25 19:48 55.88999 -3.54861 2747 ft 196 kts 59°
2026-04-25 19:48 55.89706 -3.52794 2745 ft 194 kts 59°
2026-04-25 19:49 55.90401 -3.50760 2613 ft 189 kts 59°
2026-04-25 19:49 55.90854 -3.49425 2223 ft 191 kts 59°
2026-04-25 19:49 55.91748 -3.46714 1503 ft 186 kts 60°
2026-04-25 19:49 55.92396 -3.44803 1012 ft 175 kts 58°
2026-04-25 19:50 55.93607 -3.41312 429 ft 154 kts 59°
2026-04-25 19:50 55.94157 -3.39727 266 ft 147 kts 59°
2026-04-25 19:50 55.94684 -3.38181 133 ft 144 kts 59°
2026-04-25 19:51 55.95124 -3.36876 114 ft 81 kts 58°
2026-04-25 19:51 55.95259 -3.36479 111 ft 14 kts 68°
2026-04-25 19:51 55.95202 -3.36360 115 ft 9 kts 149°
2026-04-25 19:51 55.95178 -3.36334 116 ft 0 kts 149°
2026-04-25 19:53 55.95175 -3.36331 116 ft 1 kts 149°
2026-04-25 19:53 55.95161 -3.36317 116 ft 3 kts 149°
2026-04-25 19:53 55.95145 -3.36273 116 ft 5 kts 105°
2026-04-25 19:53 55.95143 -3.36267 116 ft 0 kts 113°
2026-04-25 19:54 55.95140 -3.36266 116 ft 1 kts 150°
2026-04-25 19:54 55.95133 -3.36280 116 ft 2 kts 226°
2026-04-25 19:54 55.95114 -3.36335 116 ft 8 kts 238°
2026-04-25 19:54 55.95083 -3.36390 116 ft 11 kts 204°
2026-04-25 19:55 55.94990 -3.36472 116 ft 13 kts 237°
2026-04-25 19:55 55.94960 -3.36546 116 ft 3 kts 204°
2026-04-25 19:55 55.94927 -3.36519 116 ft 7 kts 148°
2026-04-25 19:55 55.94906 -3.36497 116 ft 3 kts 149°
2026-04-25 19:56 55.94902 -3.36492 116 ft 0 kts 149°